Location: Arbon
(43.0005°N, 0.7472°E)
Time: 14:59:50
(UTC+00:00)

Envisat - Pass Details

Date: 03 November 2020
Orbit: 764 x 766 km, 98.1° (Epoch: 30 November)

Event Time Altitude Azimuth Distance (km) Brightness Sun altitude
Rises 05:59:01 0° 13° (NNE) 3,241 6.2 -7.0°
Reaches altitude 10° 06:01:20 10° 13° (NNE) 2,310 5.5 -6.6°
Maximum altitude 06:06:27 88° 104° (ESE) 771 3.1 -5.7°
Drops below altitude 10° 06:11:31 10° 194° (SSW) 2,293 5.5 -4.8°
Sets 06:13:48 0° 194° (SSW) 3,215 6.3 -4.4°
